Simultaneous Nadir Overpasses (SNOs) Predictions

Prediction of SNOs between AQUA and NOAA-19 Satellite Orbit:

Table of predicted SNOs for the next 14.0 days since TLE Epoch: 1/31/2020
Index Date (AQUA) Time (AQUA) Lat,Lon (AQUA) SZA (AQUA ) Date (NOAA-19) Time (NOAA-19) Lat,Lon (NOAA-19) SZA (NOAA-19 ) Distance(km) Time Diff (sec)
1 02/02/2020 03:17:39 -80.01, -80.17 81.40 02/02/2020 03:16:28 -80.00, -80.04 81.39 2.60 71
2 02/02/2020 04:07:06 80.02, 87.34 98.62 02/02/2020 04:07:28 80.01, 87.33 98.60 1.81 22
3 02/04/2020 09:40:50 -80.01,-175.94 82.06 02/04/2020 09:40:49 -80.00,-176.02 82.05 1.56 1
4 02/06/2020 15:14:34 80.00, -79.31 97.27 02/06/2020 15:14:09 79.99, -79.43 97.28 2.49 25
5 02/06/2020 16:04:00 -80.01, 88.26 82.74 02/06/2020 16:05:08 -80.02, 88.31 82.75 2.20 68
6 02/08/2020 20:48:17 -79.98, 17.42 83.46 02/08/2020 20:47:30 -79.99, 17.28 83.42 2.83 47
7 02/08/2020 21:37:44 80.01,-175.16 96.58 02/08/2020 21:38:28 80.00,-175.31 96.57 2.98 44
8 02/11/2020 02:22:01 79.98, 113.96 95.83 02/11/2020 02:20:48 79.99, 114.10 95.86 2.70 73
9 02/11/2020 03:11:28 -79.98, -78.41 84.18 02/11/2020 03:11:50 -80.01, -78.42 84.17 2.62 22




NCC Satellite Simultaneous Nadir Overpasses (SNOs) Prediction Service
